User: anonymous   Login
Location: Gouy
(50.0008°N, 3.2556°E)
Time: 06:14:58
(UTC+00:00)
Language:

SJ 16-02 - Orbit

View from above orbital plane
View from above orbital plane
View from above satellite
View from above satellite

Ground track
Ground track

The orbit data is extracted from the following two-line orbital elements,

1 41634U 16043A   24201.89991070  .00002924  00000-0  31014-3 0  9993
2 41634  75.0014 155.4860 0009128 288.8441  71.1756 14.89428800437174
Epoch (UTC): 19 July 2024 21:35:52
Eccentricity: 0.0009128
inclination: 75.0014°
perigee height: 593 km
apogee height: 606 km
right ascension of ascending node: 155.4860°
argument of perigee: 288.8441°
revolutions per day: 14.89428800
mean anomaly at epoch: 71.1756°
orbit number at epoch: 43717

The dashed part of the orbit path shows where the satellite is in the earth's shadow,  

DLR